Location: Hains Lake
(37.8540°N, 99.8578°W)
Time: 15:02:21
(UTC+00:00)

Vanguard 1 - Pass Details

Date: 02 December 2021
Orbit: 652 x 3830 km, 34.2° (Epoch: 22 January)

Event Time Altitude Azimuth Distance (km) Brightness Sun altitude
Enters shadow 06:20:50 - 232° (SW) 7,135 14.4 -74.0°
Exits shadow 07:02:37 24° 86° (E) 5,232 13.6 -72.6°
Drops below altitude 10° 07:07:41 10° 81° (E) 6,024 14.1 -72.1°
Sets 07:11:39 0° 78° (ENE) 6,724 14.5 -71.7°
